[[{"header":{"parameterUnit":"m.s-1","parameterCategory":1,"la1":30.2991,"la2":30.254,"lo1":-89.0895,"lo2":-89.0444,"dy":0.0017,"dx":0.0017,"nx":28,"ny":28,"refTime":"2023-10-01T09:00:00:Z","depth":0,"parameterNumber":2,"parameterNumberName":"U-component_of_WINDS"},"data":[0,0,0,0,0,0,0,0,0,0,0,0,0,0,0,0,0,0,0,0,0,0,0,0,0,0,0,0,0,0,0,0,0,0,0,0,0,0,0,0,0,0,0,0,0,0,0,0,0,0,0,0,0,0,0,0,0,0,-5.6876,-5.6876,0,-5.6862,-5.6862,-5.6862,-5.6713,-5.6709,-5.6705,-5.6702,-5.6689,-5.6692,-5.6695,0,0,0,0,0,0,0,0,0,0,0,0,0,-5.6778,-5.6781,-5.6876,-5.6876,-5.6876,-5.6862,-5.6862,-5.6862,-5.6713,-5.6709,-5.6704,-5.67,-5.6688,-5.6692,-5.6696,0,0,0,0,0,0,0,0,0,0,0,0,0,-5.6798,-5.6782,-5.6876,-5.68,-5.6793,-5.6862,-5.6862,-5.6862,-5.6714,-5.6709,-5.6703,-5.6698,-5.6687,-5.6692,-5.6696,-5.6838,0,0,-5.6711,-5.6713,0,0,0,0,0,0,0,0,-5.6797,-5.6802,-5.6812,-5.6806,-5.6798,-5.6783,-5.6822,-5.6854,-5.6716,-5.6744,-5.6701,-5.6695,-5.6725,-5.6726,-5.6736,-5.6837,-5.6837,-5.6711,-5.6714,-5.6716,-5.6717,0,0,0,0,0,0,0,-5.6796,-5.6802,-5.6871,-5.6812,-5.6804,-5.6768,-5.6764,-5.6828,-5.6767,-5.6741,-5.6731,-5.6731,-5.672,-5.6732,-5.6735,-5.6836,-5.6711,-5.6715,-5.6718,-5.672,-5.7055,-5.7061,0,0,0,0,0,0,-5.6805,-5.6802,-5.6871,-5.687,-5.6784,-5.6774,-5.677,-5.6794,-5.6765,-5.6756,-5.6736,-5.6724,-5.6727,-5.6729,-5.6734,-5.6899,-5.6716,-5.672,-5.6723,-5.7049,-5.7056,-5.7063,0,0,0,0,0,0,-5.6804,-5.6813,-5.6872,-5.6833,-5.6838,-5.6782,-5.6809,-5.6796,-5.6808,-5.6761,-5.6749,-5.6758,-5.6722,-5.6727,-5.6813,-5.6896,-5.6723,-5.6727,-5.7042,-5.7051,-5.706,-5.723,0,0,0,0,0,0,-5.6801,-5.6813,-5.6865,-5.6835,-5.6841,-5.6951,-5.6814,-5.68,-5.6816,-5.6801,-5.6779,-5.677,-5.6718,-5.6807,-5.6818,-5.69,-5.6731,-5.7034,-5.7046,-5.7057,-5.7217,-5.7244,-5.7267,0,0,0,0,0,-5.6798,-5.6914,-5.6869,-5.6878,-5.6905,-5.6956,-5.6959,-5.6896,-5.6823,-5.6876,-5.6846,-5.6771,-5.6886,-5.6817,-5.6828,-5.6913,-5.7029,-5.7043,-5.7056,-5.7206,-5.7239,-5.7267,0,0,0,0,0,0,-5.6955,-5.6909,-5.6858,-5.6967,-5.6967,-5.6931,-5.6995,-5.6933,-5.6953,-5.6938,-5.686,-5.6856,-5.6955,-5.6942,-5.6867,-5.7049,-5.6944,-5.6961,-5.7054,-5.7085,-5.711,-5.7112,-5.6734,0,0,0,0,0,-5.7003,-5.7048,-5.7004,-5.7105,-5.7107,-5.7052,-5.7072,-5.7024,-5.702,-5.702,-5.6996,-5.6997,-5.7032,-5.7058,-5.7088,-5.7214,-5.7209,-5.7278,-5.7303,-5.7324,-5.734,-5.7408,-5.7439,-5.7108,-5.7108,-5.7107,0,0,-5.7101,-5.7081,-5.7114,-5.7136,-5.713,-5.718,-5.7053,-5.711,-5.7147,-5.7028,-5.7109,-5.7092,-5.7087,-5.7195,-5.7241,-5.7187,-5.743,-5.7341,-5.7358,-5.7363,-5.7425,-5.7456,-5.7484,-5.7117,-5.7115,-5.7114,0,0,-5.7306,-5.7294,-5.7378,-5.7375,-5.7367,-5.733,-5.735,-5.7324,-5.7308,-5.7388,-5.7301,-5.7343,-5.7406,-5.7407,-5.7416,-5.7624,-5.7556,-5.7636,-5.7768,-5.7835,-5.7861,-5.7884,-5.796,-5.7988,-5.7651,-5.7652,-5.7652,0,-5.7429,-5.7499,-5.7429,-5.7492,-5.7506,-5.7401,-5.7486,-5.7486,-5.749,-5.7502,-5.7441,-5.752,-5.7509,-5.7616,-5.7667,-5.7677,-5.77,-5.7638,-5.7863,-5.7885,-5.7905,-5.7977,-5.8005,-5.7662,-5.7661,-5.766,-5.7659,0,-5.7652,-5.7703,-5.7771,-5.7777,-5.7798,-5.7872,-5.7814,-5.7844,-5.7794,-5.7764,-5.7847,-5.7831,-5.7857,-5.7879,-5.7831,-5.798,-5.7947,-5.7876,-5.7769,-5.7948,-5.8014,-5.8041,-5.7676,-5.7672,-5.7669,-5.7667,0,0,-5.7955,-5.7922,-5.7949,-5.7951,-5.7936,-5.7974,-5.8044,-5.807,-5.8098,-5.8104,-5.8162,-5.8219,-5.8154,-5.8164,-5.8115,-5.8174,-5.8342,-5.8095,-5.8094,-5.8144,-5.8509,-5.8564,-5.8596,-5.8297,-5.8302,-5.8306,-5.851,0,-5.8153,-5.8271,-5.821,-5.8336,-5.8383,-5.8285,-5.8346,-5.8345,-5.8319,-5.8356,-5.8326,-5.8369,-5.8278,-5.8284,-5.8338,-5.8311,-5.8415,-5.8295,-5.8352,-5.8355,-5.8358,-5.863,-5.8688,-5.8881,-5.8535,-5.8539,-5.8542,0,-5.84,-5.8417,-5.8548,-5.8526,-5.8544,-5.86,-5.8619,-5.8655,-5.8652,-5.8629,-5.8642,-5.858,-5.8649,-5.8543,-5.8638,-5.8558,-5.8578,-5.8568,-5.8574,-5.8578,-5.846,-5.8644,-5.8941,-5.8971,-5.8582,-5.8579,-5.8576,0,-5.861,-5.8666,-5.8752,-5.8757,-5.8733,-5.8775,-5.8767,-5.8758,-5.8779,-5.8796,-5.8808,-5.8834,-5.8849,-5.8871,-5.8818,-5.8745,-5.8922,-5.881,-5.8906,-5.8908,-5.8948,-5.8947,-5.9255,-5.8959,-5.8959,-5.8958,-5.8958,0,-5.8839,-5.8923,-5.8846,-5.8899,-5.8992,-5.8922,-5.9015,-5.8997,-5.8991,-5.904,-5.8956,-5.9004,-5.8931,-5.8972,-5.8931,-5.9018,-5.9024,-5.9009,-5.8998,-5.9018,-5.902,-5.903,-5.9016,-5.8966,-5.8964,-5.8963,-5.8962,0,-5.909,-5.9041,-5.9128,-5.9099,-5.9094,-5.9164,-5.9139,-5.9187,-5.9156,-5.9219,-5.923,-5.9181,-5.9226,-5.9175,-5.9215,-5.9188,-5.9306,-5.9273,-5.9307,-5.9298,-5.9398,-5.939,-5.9725,-5.9766,-5.9443,-5.9446,-5.9449,0,-5.9239,-5.9302,-5.928,-5.9306,-5.9304,-5.9347,-5.9367,-5.9302,-5.9326,-5.9329,-5.9378,-5.9415,-5.9442,-5.9518,-5.9487,-5.9518,-5.9487,-5.9602,-5.9491,-5.951,-5.9491,-5.9489,-5.9496,-5.9625,-5.9629,-5.9632,-5.9635,0,-5.9511,-5.9484,-5.9516,-5.9541,-5.9567,-5.9583,-5.9593,-5.962,-5.9552,-5.9584,-5.9628,-5.9649,-5.9691,-5.973,-5.9752,-5.9745,-5.9681,-5.967,-5.9694,-5.9716,-5.9734,-5.9727,-5.9371,-5.9663,-5.966,-5.9658,-5.9657,-5.9655,-5.9717,-5.9769,-5.9762,-5.9801,-5.9801,-5.9813,-5.9858,-5.9832,-5.9868,-5.9896,-5.9856,-5.9912,-5.9909,-5.9933,-5.9934,-5.9977,-5.9928,-5.9963,-5.9972,-5.9982,-5.9998,-5.9726,-5.9981,-5.998,-5.9979,-5.9979,-5.9978,0,-5.9985,-5.9976,-6.0013,-6.003,-6.0061,-5.9996,-6.0004,-6.0035,-6.0085,-6.0088,-6.0116,-6.0168,-6.0206,-6.0179,-6.0211,-6.0252,-6.0223,-6.0263,-6.026,-6.026,-6.0039,-6.0016,-6.0286,-6.0286,-6.0286,-6.0285,-6.0285,-6.0285,-6.0129,-6.0214,-6.0187,-6.0273,-6.0263,-6.0317,-6.0328,-6.0339,-6.0341,-6.0403,-6.0434,-6.0415,-6.0407,-6.0438,-6.0471,-6.0462,-6.0478,-6.053,-6.0511,-6.0305,-6.0275,-6.0246,-6.0224,-6.0533,-6.0534,-6.0727,-6.0729,-6.0731]},{"header":{"parameterUnit":"m.s-1","parameterCategory":1,"la1":30.2991,"la2":30.254,"lo1":-89.0895,"lo2":-89.0444,"dy":0.0017,"dx":0.0017,"nx":28,"ny":28,"refTime":"2023-10-01T09:00:00:Z","depth":0,"parameterNumber":3,"parameterNumberName":"V-component_of_WINDS"},"data":[0,0,0,0,0,0,0,0,0,0,0,0,0,0,0,0,0,0,0,0,0,0,0,0,0,0,0,0,0,0,0,0,0,0,0,0,0,0,0,0,0,0,0,0,0,0,0,0,0,0,0,0,0,0,0,0,0,0,-0.7873,-0.7874,0,-0.7885,-0.7885,-0.7885,-0.7853,-0.7852,-0.7851,-0.785,-0.7864,-0.7865,-0.7866,0,0,0,0,0,0,0,0,0,0,0,0,0,-0.7825,-0.7826,-0.7873,-0.7874,-0.7874,-0.7885,-0.7885,-0.7885,-0.7853,-0.7852,-0.785,-0.7849,-0.7863,-0.7865,-0.7866,0,0,0,0,0,0,0,0,0,0,0,0,0,-0.7842,-0.7826,-0.7873,-0.7859,-0.7858,-0.7885,-0.7885,-0.7885,-0.7853,-0.7852,-0.785,-0.7849,-0.7863,-0.7865,-0.7867,-0.7909,0,0,-0.7873,-0.7874,0,0,0,0,0,0,0,0,-0.7841,-0.7844,-0.7861,-0.786,-0.7859,-0.7866,-0.7873,-0.7893,-0.7854,-0.7855,-0.785,-0.7848,-0.7866,-0.7867,-0.7873,-0.791,-0.791,-0.7873,-0.7874,-0.7875,-0.7875,0,0,0,0,0,0,0,-0.784,-0.7843,-0.7878,-0.7861,-0.786,-0.7852,-0.7853,-0.7877,-0.7869,-0.7855,-0.7852,-0.7854,-0.7865,-0.7871,-0.7873,-0.791,-0.7873,-0.7875,-0.7876,-0.7877,-0.7982,-0.7984,0,0,0,0,0,0,-0.7841,-0.7843,-0.7878,-0.7878,-0.7846,-0.7854,-0.7855,-0.7865,-0.7868,-0.7867,-0.7855,-0.7853,-0.7869,-0.7871,-0.7873,-0.7924,-0.7875,-0.7877,-0.7878,-0.7981,-0.7983,-0.7984,0,0,0,0,0,0,-0.784,-0.7844,-0.7877,-0.786,-0.7863,-0.7857,-0.7868,-0.7866,-0.7872,-0.7869,-0.7867,-0.7863,-0.7867,-0.7871,-0.79,-0.7924,-0.7878,-0.7879,-0.7979,-0.7981,-0.7984,-0.8025,0,0,0,0,0,0,-0.7839,-0.7844,-0.786,-0.786,-0.7864,-0.7904,-0.7869,-0.7867,-0.7875,-0.7872,-0.7876,-0.7875,-0.7866,-0.7897,-0.7902,-0.7926,-0.7881,-0.7977,-0.798,-0.7983,-0.8021,-0.8028,-0.8034,0,0,0,0,0,-0.7837,-0.7871,-0.7861,-0.7865,-0.7884,-0.7905,-0.7907,-0.7896,-0.7877,-0.7894,-0.7891,-0.7875,-0.792,-0.7901,-0.7906,-0.793,-0.7975,-0.7979,-0.7983,-0.8019,-0.8027,-0.8034,0,0,0,0,0,0,-0.7875,-0.7871,-0.786,-0.7895,-0.7901,-0.79,-0.792,-0.7906,-0.7917,-0.7914,-0.79,-0.7901,-0.7933,-0.7934,-0.7913,-0.7971,-0.7944,-0.7949,-0.797,-0.7978,-0.7984,-0.7985,-0.7883,0,0,0,0,0,-0.7887,-0.7904,-0.79,-0.7932,-0.7935,-0.7927,-0.7936,-0.7926,-0.7932,-0.7934,-0.7934,-0.794,-0.7956,-0.7967,-0.7981,-0.802,-0.8021,-0.804,-0.8046,-0.8051,-0.8057,-0.8079,-0.8087,-0.7997,-0.7997,-0.7996,0,0,-0.7914,-0.7913,-0.7925,-0.7939,-0.7943,-0.7961,-0.7929,-0.795,-0.7964,-0.7937,-0.7966,-0.7965,-0.7971,-0.8007,-0.8022,-0.8009,-0.8081,-0.8056,-0.806,-0.8063,-0.8083,-0.8092,-0.8099,-0.7999,-0.7999,-0.7998,0,0,-0.7971,-0.7972,-0.7999,-0.8002,-0.8007,-0.8001,-0.8007,-0.8008,-0.8007,-0.8034,-0.8015,-0.8031,-0.8058,-0.8063,-0.807,-0.8127,-0.8113,-0.8132,-0.8167,-0.8189,-0.8196,-0.8202,-0.8224,-0.8232,-0.8137,-0.8137,-0.8137,0,-0.8004,-0.803,-0.8015,-0.8037,-0.8044,-0.8019,-0.8047,-0.8051,-0.8061,-0.8066,-0.805,-0.8083,-0.8086,-0.8122,-0.8136,-0.8141,-0.8149,-0.8133,-0.8196,-0.8202,-0.8208,-0.8229,-0.8237,-0.8139,-0.8139,-0.8139,-0.8138,0,-0.807,-0.8089,-0.811,-0.8119,-0.8128,-0.8153,-0.8142,-0.8153,-0.8142,-0.8138,-0.8166,-0.8168,-0.8182,-0.8189,-0.8179,-0.8224,-0.8216,-0.8198,-0.8171,-0.8219,-0.8238,-0.8246,-0.8143,-0.8142,-0.8141,-0.814,0,0,-0.8155,-0.8153,-0.8162,-0.8166,-0.8168,-0.8182,-0.8205,-0.8218,-0.8229,-0.8235,-0.8255,-0.8278,-0.8261,-0.8268,-0.8258,-0.8277,-0.8324,-0.8257,-0.8256,-0.8271,-0.8375,-0.839,-0.8399,-0.8313,-0.8314,-0.8315,-0.8375,0,-0.8213,-0.8253,-0.8239,-0.828,-0.8297,-0.8273,-0.8293,-0.8297,-0.8294,-0.8308,-0.8303,-0.832,-0.8296,-0.83,-0.8317,-0.8314,-0.8345,-0.831,-0.8333,-0.8334,-0.8335,-0.8409,-0.8425,-0.8482,-0.8382,-0.8383,-0.8384,0,-0.8287,-0.8296,-0.8338,-0.8337,-0.8344,-0.8362,-0.8373,-0.8386,-0.839,-0.8386,-0.8393,-0.8379,-0.8402,-0.8373,-0.8405,-0.8382,-0.839,-0.839,-0.8392,-0.8396,-0.8364,-0.8417,-0.8499,-0.8508,-0.8396,-0.8395,-0.8394,0,-0.8347,-0.8369,-0.8397,-0.8401,-0.84,-0.8414,-0.8414,-0.8416,-0.8425,-0.8433,-0.8439,-0.8451,-0.8458,-0.8467,-0.8457,-0.8436,-0.8491,-0.8461,-0.849,-0.849,-0.8505,-0.8505,-0.8592,-0.8506,-0.8506,-0.8506,-0.8506,0,-0.8414,-0.8442,-0.8424,-0.8442,-0.8472,-0.8455,-0.8485,-0.8483,-0.8485,-0.8502,-0.8481,-0.8498,-0.8482,-0.8497,-0.8489,-0.8517,-0.852,-0.8518,-0.8517,-0.8522,-0.8522,-0.8529,-0.8526,-0.8508,-0.8508,-0.8507,-0.8507,0,-0.8488,-0.8477,-0.8506,-0.8502,-0.8502,-0.8524,-0.8521,-0.8538,-0.8531,-0.8553,-0.8557,-0.8548,-0.8565,-0.8554,-0.8572,-0.8566,-0.8604,-0.8595,-0.8603,-0.8602,-0.8632,-0.863,-0.8728,-0.8741,-0.8645,-0.8646,-0.8647,0,-0.8533,-0.8554,-0.8551,-0.8561,-0.8563,-0.8578,-0.8587,-0.857,-0.858,-0.8585,-0.8601,-0.8616,-0.8627,-0.8655,-0.865,-0.8663,-0.8656,-0.8689,-0.8658,-0.8663,-0.8659,-0.8659,-0.8662,-0.8697,-0.8698,-0.8699,-0.87,0,-0.8616,-0.8609,-0.8621,-0.8631,-0.8641,-0.8649,-0.8655,-0.8664,-0.8647,-0.8659,-0.8676,-0.8684,-0.8701,-0.8716,-0.8727,-0.8728,-0.8712,-0.8709,-0.8717,-0.8724,-0.8728,-0.8728,-0.8623,-0.8708,-0.8707,-0.8706,-0.8706,-0.8705,-0.8678,-0.8695,-0.8696,-0.871,-0.8713,-0.8718,-0.8734,-0.8728,-0.8742,-0.8754,-0.8743,-0.8763,-0.8766,-0.8778,-0.8781,-0.8797,-0.8783,-0.8794,-0.8797,-0.8801,-0.8806,-0.8723,-0.8798,-0.8798,-0.8798,-0.8797,-0.8797,0,-0.8761,-0.876,-0.8773,-0.8781,-0.8793,-0.8774,-0.8779,-0.879,-0.8808,-0.8811,-0.8822,-0.8841,-0.8855,-0.885,-0.8863,-0.8877,-0.887,-0.8881,-0.8881,-0.8882,-0.8816,-0.8809,-0.8887,-0.8887,-0.8887,-0.8887,-0.8887,-0.8887,-0.8806,-0.8834,-0.8827,-0.8856,-0.8855,-0.8874,-0.8878,-0.8884,-0.8886,-0.8908,-0.8919,-0.8916,-0.8916,-0.8928,-0.8941,-0.8939,-0.8946,-0.896,-0.8956,-0.8895,-0.8887,-0.8878,-0.8872,-0.8961,-0.8961,-0.9021,-0.9021,-0.9022]}]]